Regional Weather Roundup
Issued by NWS

Home | Current Version | Previous Version | Graphics & Text | Print | Product List | Glossary On
Versions: 1 2 3 4 5 6 7 8 9 10 11 12 13 14 15 16 17 18 19 20 21 22 23 24 25 26 27 28 29 30 31 32 33 34 35 36 37 38 39 40 41 42 43 44 45 46 47 48 49 50
434
ASUS43 KDTX 030910
RWRMI
MICHIGAN HOURLY REGIONAL WEATHER ROUNDUP
NATIONAL WEATHER SERVICE DETROIT/PONTIAC MI
ISSUED BY NATIONAL WEATHER SERVICE GRAND RAPIDS MI
400 AM EST SAT DEC 03 2016

NOTE: "FAIR" INDICATES FEW OR NO CLOUDS BELOW 12,000 FEET WITH NO
SIGNIFICANT WEATHER AND/OR OBSTRUCTION TO VISIBILITY.

MIZ047>049-052>055-059>063-066>070-074>076-081>083-031000-
SOUTHEAST LOWER MICHIGAN

CITY           SKY/WX    TMP DP  RH WIND       PRES   REMARKS
ALMA           CLOUDY    34  30  85 W7        30.26S WCI  28
BAD AXE        CLOUDY    36  33  90 W7        30.20S WCI  31
GROSSE ILE     CLOUDY    34  29  81 NW5       30.26S WCI  30
HILLSDALE      CLOUDY    32  30  93 W3        30.25S
HOWELL         CLOUDY    33  28  83 W6        30.25S WCI  27

CITY           SKY/WX    TMP DP  RH WIND       PRES   REMARKS
JACKSON        CLOUDY    34  28  79 W6        30.26  WCI  29
MASON          CLOUDY    34  30  86 CALM      30.26S
MONROE         CLOUDY    34  31  88 CALM      30.27R
MT. CLEMENS    CLOUDY    36  31  80 NW7       30.22S WCI  31
PORT HOPE        N/A     40  34  79 W9        30.18S WCI  34
PORT HURON     CLOUDY    36  32  87 W5        30.23R WCI  32
TRI CITIES     MOCLDY    32  30  93 W8        30.25  WCI  25
$$
MIZ043>046-050>051-056>058-064>065-071>073-077>080-031000-
SOUTHWEST LOWER MICHIGAN

CITY           SKY/WX    TMP DP  RH WIND       PRES   REMARKS
BATTLE CREEK   CLOUDY    35  30  82 CALM      30.27F
BENTON HARBOR  CLOUDY    37  27  67 W8        30.30R WCI  31
BIG RAPIDS     CLOUDY    36  31  82 W10       30.23F WCI  28
COLDWATER      CLOUDY    35  29  80 CALM      30.27S
HOLLAND        CLOUDY    37  29  72 NW3       30.29S
GRAND RAPIDS   CLOUDY    35  30  82 W6        30.28S WCI  30
KALAMAZOO      CLOUDY    36  29  75 CALM      30.28S
MARSHALL       CLOUDY    35  31  87 CALM      30.26F
MOUNT PLEASANT CLOUDY    35  30  83 W6        30.24R WCI  30
MUSKEGON       CLOUDY    37  29  72 W6        30.28  WCI  32
STURGIS        CLOUDY    35  28  75 W3        30.28R
$$
MIZ016>042-031000-
NORTHERN LOWER MICHIGAN

CITY           SKY/WX    TMP DP  RH WIND       PRES   REMARKS
BEAVER ISLAND  CLOUDY    37  32  83 NW7       30.22S WCI  31
BELLAIRE       CLOUDY    36  35  95 CALM      30.22S
CADILLAC       LGT SNOW  33  32  95 W7        30.20S WCI  27
CHARLEVOIX     CLOUDY    39  32  77 NW9       30.24S WCI  33
GAYLORD        CLOUDY    35  32  88 W3        30.18S
HOUGHTON LAKE  CLOUDY    36  33  89 W7        30.21S WCI  30
OSCODA         CLOUDY    39  33  80 W5        30.19S
PELLSTON       CLOUDY    36  32  85 CALM      30.21R
TRAVERSE CITY  CLOUDY    38  35  89 CALM      30.22S
LUDINGTON      CLOUDY    37  31  81 W5        30.26S WCI  33
$$
MIZ007>008-015-031000-
EASTERN UPPER MICHIGAN

CITY           SKY/WX    TMP DP  RH WIND       PRES   REMARKS
KINROSS        CLOUDY    32  31  96 W6        30.18S WCI  26
MACKINAC ISLAN CLOUDY    35  31  88 NW12G20   30.19S WCI  26
NEWBERRY       CLOUDY    33  32  98 W7        30.20R WCI  26
S. S. MARIE    LGT SNOW  34  32  92 N6        30.17S FOG     WCI  29
$$
MIZ004>006-011>014-085-031000-
CENTRAL UPPER MICHIGAN

CITY           SKY/WX    TMP DP  RH WIND       PRES   REMARKS
MANISTIQUE     CLOUDY    34  32  93 W6        30.23R WCI  29
ESCANABA       CLOUDY    34  29  82 W5        30.25  WCI  30
MENOMINEE      CLOUDY    34  28  79 W3        30.26
SAWYER-GWINN   CLOUDY    31  28  90 W3        30.22S
$$
MIZ001>003-009>011-084-031000-
WESTERN UPPER MICHIGAN

CITY           SKY/WX    TMP DP  RH WIND       PRES   REMARKS
HOUGHTON       CLOUDY    32  29  88 CALM      30.22R
COPPER HARBOR    N/A     35  27  72 N10       30.23S WCI  27
IRONWOOD       FLURRIES  28  26  92 SW6       30.25  WCI  22
$$

ABBREVIATIONS USED IN REMARKS
   TC - TEMPERATURE IN CELSIUS
  WCI - WIND CHILL INDEX
   HX - HEAT INDEX
  VSB - VISIBILITY





USA.gov is the U.S. government's official web portal to all federal, state and local government web resources and services.